This demonstration page uses our WeatherBlox Daily Observations layout. Learn more.

Left ArrowRight Arrow

41.55636, -103.73856

Hourly Observations for June 25, 2019

Temp ( °F °C ) Dew Point ( °F °C ) Humidity (%) Winds ( mph kmh ) Pressure ( in mb ) Visibility ( mi km ) Precip ( " mm )
6:58 pm 18:58 Partly Cloudy 73 22.5 39 4 30 30 WNW 14 22 29.77 1008 10 16 0.00 0.00
7:58 pm 19:58 Mostly Clear 66 18.8 44 6.8 46 46 WSW 9 15 29.78 1009 10 16 0.00 0.00
8:58 pm 20:58 Mostly Cloudy 60 15.8 44 6.4 54 54 W 10 17 29.80 1009 10 16 0.00 0.00
9:58 pm 21:58 Mostly Clear 59 14.9 41 4.8 51 51 W 13 20 29.80 1009 10 16 0.00 0.00
11:58 pm 23:58 Clear 56 13.6 42 5.4 58 58 NW 9 15 29.84 1010 10 16 0.00 0.00
12:58 am 00:58 Clear 54 12.4 42 5.4 63 63 WNW 13 20 29.83 1010 10 16 0.00 0.00
1:58 am 01:58 Clear 56 13.2 40 4.7 57 57 Calm 29.84 1010 10 16 0.00 0.00
2:58 am 02:58 Clear 51 10.5 41 5.1 69 69 NW 6 9 29.85 1011 10 16 0.00 0.00
3:58 am 03:58 Clear 54 12.4 41 4.8 60 60 WNW 13 20 29.85 1011 10 16 0.00 0.00
4:58 am 04:58 Clear 51 10.7 41 4.8 67 67 WNW 15 24 29.87 1011 10 16 0.00 0.00
5:58 am 05:58 Partly Cloudy 50 10 43 6.2 77 77 WNW 13 20 29.90 1013 10 16 0.00 0.00
6:58 am 06:58 Mostly Sunny 54 12.2 47 8.2 77 77 NW 8 13 29.90 1013 10 16 0.00 0.00
7:58 am 07:58 Sunny 59 15 50 10.2 73 73 WNW 7 11 29.92 1013 10 16 0.00 0.00
8:58 am 08:58 Sunny 64 17.5 47 8.4 55 55 Calm 29.93 1014 10 16 0.00 0.00
9:58 am 09:58 Sunny 66 19.1 45 7.1 46 46 Calm 29.92 1013 10 16 0.00 0.00
10:58 am 10:58 Sunny 71 21.8 40 4.7 33 33 W 3 6 29.91 1013 10 16 0.00 0.00
11:58 am 11:58 Sunny 73 23 43 6.1 34 34 Calm 29.91 1013 10 16 0.00 0.00
12:58 pm 12:58 Sunny 76 24.4 43 6.3 31 31 SSW 6 9 29.89 1012 10 16 0.00 0.00
1:58 pm 13:58 Sunny 78 25.5 43 6 29 29 S 8 13 29.86 1011 10 16 0.00 0.00
2:58 pm 14:58 Sunny 78 25.8 42 5.5 27 27 SW 12 19 29.87 1011 10 16 0.00 0.00
3:58 pm 15:58 Partly Cloudy 72 22.4 47 8.4 41 41 SSW 13 20 29.88 1012 10 16 0.00 0.00
4:58 pm 16:58 Mostly Sunny 75 23.7 45 7.2 35 35 S 14 22 29.86 1011 10 16 0.00 0.00
5:58 pm 17:58 Mostly Sunny 74 23.6 42 5.5 31 31 S 20 31 29.85 1011 10 16 0.00 0.00

Powered by AerisWeather